SM6PGP-2 Weather Reports


Display with metric or nautical units.
time (UTC)temp
F
wind
direction
speed
MPH
gust
MPH
rain 1hr
in
rain 24hr
in
rain mn
in
humidity
%
barometer
mb
20190218062200 40 13 18.0 28.0 0.00 0.00 0.00 95 1013.6
20190218061149 40 22 13.0 24.0 0.00 0.00 0.00 95 1013.7
20190218060644 40 22 18.0 23.0 0.00 0.00 0.00 94 1013.7
20190218055129 41 22 17.0 27.0 0.00 0.00 0.00 94 1013.9
20190218051552 42 22 11.0 18.0 0.00 0.00 0.00 94 1014.2
20190218041952 42 22 11.0 20.0 0.00 0.00 0.00 93 1014.5
20190218040436 43 22 17.0 23.0 0.00 0.00 0.00 94 1014.8
20190218034416 43 22 11.0 14.0 0.00 0.00 0.00 92 1015.2
20190218033910 43 22 13.0 18.0 0.00 0.00 0.00 93 1015.3
20190218032900 43 22 15.0 16.0 0.00 0.00 0.00 92 1015.2
20190218032355 43 22 14.0 26.0 0.00 0.00 0.00 93 1015.3
20190218031850 44 22 12.0 22.0 0.00 0.00 0.00 93 1015.3
20190218024818 44 180 18.0 19.0 0.00 0.00 0.00 94 1015.5
20190218005119 44 22 15.0 15.0 0.00 0.00 0.00 96 1017.0
20190218004614 44 4 10.0 10.0 0.00 0.00 0.00 97 1017.2
20190218002048 44 342 9.0 10.0 0.00 0.00 0.00 96 1017.3
20190217182946 41 0 3.0 4.0 0.00 0.00 0.00 99 1019.2
20190217170823 41 22 8.0 11.0 0.00 0.00 0.00 97 1019.2
20190217154659 40 328 8.0 9.0 0.00 0.00 0.00 95 1019.2
20190217153649 40 315 6.0 7.0 0.00 0.00 0.00 95 1019.3
20190217152133 41 315 6.0 8.0 0.00 0.00 0.00 95 1019.3
20190217145607 41 22 7.0 9.0 0.00 0.00 0.00 95 1019.4
20190217143547 41 346 7.0 9.0 0.00 0.00 0.00 96 1019.5
20190217142031 41 22 8.0 10.0 0.00 0.00 0.00 96 1019.5
20190217135505 40 22 6.0 10.0 0.00 0.00 0.00 96 1019.6
20190217134455 40 22 9.0 10.0 0.00 0.00 0.00 96 1019.6
20190217133444 40 22 10.0 11.0 0.00 0.00 0.00 95 1019.7
20190217132939 40 355 6.0 10.0 0.00 0.00 0.00 96 1019.6
20190217131423 40 13 6.0 11.0 0.00 0.00 0.00 96 1019.5
20190217130918 40 22 11.0 12.0 0.00 0.00 0.00 96 1019.6
20190217125903 40 22 9.0 10.0 0.00 0.00 0.00 95 1019.7
20190217123842 39 337 7.0 11.0 0.00 0.00 0.00 96 1019.7
20190217122832 39 22 8.0 9.0 0.00 0.00 0.00 97 1019.9
20190217122326 39 168 7.0 9.0 0.00 0.00 0.00 95 1019.7
20190217121821 39 180 8.0 9.0 0.00 0.00 0.00 96 1019.8
20190217120811 39 22 6.0 9.0 0.00 0.00 0.00 97 1019.8
20190217120306 39 22 6.0 12.0 0.00 0.00 0.00 96 1019.7
20190217115801 39 346 9.0 10.0 0.00 0.00 0.00 96 1019.8
20190217114750 39 22 7.0 10.0 0.00 0.00 0.00 94 1019.9
20190217114245 39 22 6.0 9.0 0.00 0.00 0.00 95 1019.9
20190217113740 39 355 13.0 13.0 0.00 0.00 0.00 96 1019.9
20190217113234 39 22 10.0 14.0 0.00 0.00 0.00 95 1019.9
20190217112729 39 180 8.0 10.0 0.00 0.00 0.00 95 1019.9
20190217112225 39 168 11.0 14.0 0.00 0.00 0.00 95 1019.8
20190217111719 39 180 9.0 13.0 0.00 0.00 0.00 95 1019.8
20190217111214 39 22 9.0 11.0 0.00 0.00 0.00 96 1019.9
20190217110708 39 346 12.0 13.0 0.00 0.00 0.00 95 1019.8
20190217110203 39 0 13.0 14.0 0.00 0.00 0.00 95 1019.9
20190217105658 40 180 10.0 13.0 0.00 0.00 0.00 96 1019.8
20190217105153 40 180 7.0 13.0 0.00 0.00 0.00 96 1019.7
20190217104648 40 337 9.0 12.0 0.00 0.00 0.00 96 1019.6
20190217104142 40 337 9.0 11.0 0.00 0.00 0.00 96 1019.5
20190217103637 40 180 12.0 12.0 0.00 0.00 0.00 96 1019.5
20190217103132 40 180 10.0 13.0 0.00 0.00 0.00 96 1019.5
20190217102627 41 337 9.0 14.0 0.00 0.00 0.00 97 1019.5
20190217102121 41 180 13.0 13.0 0.00 0.00 0.00 96 1019.5
20190217101616 40 180 6.0 11.0 0.00 0.00 0.00 97 1019.5
20190217101111 40 180 11.0 12.0 0.00 0.00 0.00 97 1019.5
20190217100606 40 180 9.0 11.0 0.00 0.00 0.00 96 1019.5
20190217100101 40 337 8.0 11.0 0.00 0.00 0.00 97 1019.6
20190217094545 40 180 6.0 8.0 0.00 0.00 0.00 97 1019.4
20190217094040 40 0 8.0 10.0 0.00 0.00 0.00 97 1019.4
20190217093535 40 355 7.0 9.0 0.00 0.00 0.00 96 1019.3
20190217093029 40 342 9.0 9.0 0.00 0.00 0.00 96 1019.4
20190217092524 40 22 6.0 8.0 0.00 0.00 0.00 97 1019.3
20190217092019 40 22 6.0 6.0 0.00 0.00 0.00 97 1019.2
20190217091514 40 333 5.0 9.0 0.00 0.00 0.00 97 1019.2
20190217091009 40 0 7.0 9.0 0.00 0.00 0.00 97 1019.2
20190217085958 40 270 3.0 8.0 0.00 0.00 0.00 99 1019.2
20190217085453 40 355 7.0 7.0 0.00 0.00 0.00 96 1019.2
20190217084948 40 292 6.0 6.0 0.00 0.00 0.00 98 1019.2
20190217084443 40 0 5.0 11.0 0.00 0.00 0.00 97 1019.1
20190217083937 40 337 10.0 11.0 0.00 0.00 0.00 97 1019.0
20190217083432 40 270 11.0 13.0 0.00 0.00 0.00 96 1019.1
20190217082927 40 342 7.0 10.0 0.00 0.00 0.00 96 1019.1
20190217082422 40 337 7.0 8.0 0.00 0.00 0.00 97 1019.0
20190217081917 40 270 7.0 13.0 0.00 0.00 0.00 98 1019.0
20190217081411 39 270 4.0 13.0 0.00 0.00 0.00 98 1019.0
20190217080907 39 283 11.0 17.0 0.00 0.00 0.00 98 1018.9
20190217080401 39 337 7.0 12.0 0.00 0.00 0.00 96 1019.0
20190217075856 39 270 5.0 13.0 0.00 0.00 0.00 98 1018.9
20190217075351 39 283 13.0 13.0 0.00 0.00 0.00 97 1018.6
20190217074846 39 270 11.0 12.0 0.00 0.00 0.00 96 1018.7
20190217074340 39 270 8.0 12.0 0.00 0.00 0.00 96 1018.8
20190217073330 39 270 6.0 15.0 0.00 0.00 0.00 98 1018.6
20190217072825 39 270 8.0 15.0 0.00 0.00 0.00 96 1018.7
20190217072319 39 270 18.0 18.0 0.00 0.00 0.00 97 1018.6
20190217071309 39 270 6.0 14.0 0.00 0.00 0.00 97 1018.4
20190217070804 39 270 9.0 14.0 0.00 0.00 0.00 96 1018.4
20190217070259 39 297 6.0 13.0 0.00 0.00 0.00 96 1018.3
20190217065753 39 270 7.0 12.0 0.00 0.00 0.00 96 1018.3
20190217065249 39 270 8.0 11.0 0.00 0.00 0.00 95 1018.3
20190217064743 39 270 10.0 11.0 0.00 0.00 0.00 95 1018.3
20190217064238 39 310 13.0 16.0 0.00 0.00 0.00 95 1018.1
20190217063733 39 310 9.0 12.0 0.00 0.00 0.00 96 1018.0